Regional Weather Roundup
Issued by NWS

Home | Current Version | Previous Version | Graphics & Text | Print | Product List | Glossary On
Versions: 1 2 3 4 5 6 7 8 9 10 11 12 13 14 15 16 17 18 19 20 21 22 23 24 25 26 27 28
000
ASUS45 KCYS 031110
RWRWY

WYOMING REGIONAL WEATHER ROUNDUP
NATIONAL WEATHER SERVICE CHEYENNE WY
500 AM MDT TUE MAY 03 2016

NOTE:  "FAIR" INDICATES FEW OR NO CLOUDS BELOW 12,000 FEET
WITH NO SIGNIFICANT WEATHER AND/OR OBSTRUCTIONS TO VISIBILITY.

WYZ001-031200-
YELLOWSTONE NATIONAL PARK

CITY           SKY/WX    TMP DP  RH WIND       PRES   REMARKS
LK YELLOWSTONE   N/A     26  21  81 CALM      30.34R
W YELLOWSTONE  NOT AVBL

$$
WYZ002>013-054>058-071-098>099-031200-
NORTHERN WYOMING

CITY           SKY/WX    TMP DP  RH WIND       PRES   REMARKS
JACKSON        FAIR      32  27  80 CALM      30.29S
CODY           FAIR      46  28  49 SW8       30.18S
GREYBULL       FAIR      42  30  62 SE3       30.16R
WORLAND        FAIR      39  34  82 SW5       30.16R
SHERIDAN       FAIR      40  31  70 NE3       30.14R
BUFFALO          N/A    N/A N/A N/A MISG      30.17S
GILLETTE       FAIR      42  35  76 W12       30.13R
HULETT         FAIR      41  34  75 S8        30.12S
NEWCASTLE      FAIR      37  30  75 CALM      30.12R

$$
WYZ014>020-022>026-101>103-031200-
CENTRAL WYOMING

CITY           SKY/WX    TMP DP  RH WIND       PRES   REMARKS
BIG PINEY      FAIR      29  19  66 E3        30.28S
PINEDALE       FAIR      25  21  86 NW5       30.30R WCI  19
DUBOIS         FAIR      32  21  64 W10       30.28S WCI  24
LANDER         FAIR      41  26  55 CALM      30.20S
RIVERTON       FAIR      41  30  65 W7        30.21S
CASPER         FAIR      35  30  82 W9        30.20S WCI  28
DOUGLAS        FAIR      37  33  85 NW10      30.18S WCI  30

$$
WYZ021-027>030-104>119-031200-
SOUTHERN WYOMING

CITY           SKY/WX    TMP DP  RH WIND       PRES   REMARKS
EVANSTON       FAIR      36  24  62 CALM      30.27S
KEMMERER         N/A     32  21  64 NW9       30.28S WCI  24
FORT BRIDGER   SUNNY     37  25  60 W8        30.29S WCI  31
ROCK SPRINGS   FAIR      36  23  59 CALM      30.26R
DIXON          FAIR      30  24  76 NE6       30.28S WCI  24
RAWLINS        FAIR      30  24  78 N3        30.26R
SARATOGA       FAIR      27  23  86 S12       30.27R WCI  16
LARAMIE        FAIR      26  24  92 S7        30.23S WCI  18
CHEYENNE       FAIR      41  28  60 NW13G21   30.16S
TORRINGTON     FAIR      40  34  79 W9        30.11R WCI  34
PINE BLUFFS    FAIR      39  32  75 NW16G22   30.12S WCI  30

$$




USA.gov is the U.S. government's official web portal to all federal, state and local government web resources and services.